[[{"header":{"parameterUnit":"m.s-1","parameterCategory":1,"la1":30.2991,"la2":30.254,"lo1":-89.0895,"lo2":-89.0444,"dy":0.0017,"dx":0.0017,"nx":28,"ny":28,"refTime":"2026-03-03T03:00:00:Z","depth":0,"parameterNumber":2,"parameterNumberName":"U-component_of_WINDS"},"data":[0,0,0,0,0,0,0,0,0,0,0,0,0,0,0,0,0,0,0,0,0,0,0,0,0,0,0,0,0,0,0,0,0,0,0,0,0,0,0,0,0,0,0,0,0,0,0,0,0,0,0,0,0,0,0,0,0,0,-4.0125,-4.0126,0,-4.0204,-4.0204,-4.0205,-4.0149,-4.0146,-4.0144,-4.0141,-4.0222,-4.0226,-4.023,0,0,0,0,0,0,0,0,0,0,0,0,0,-3.993,-3.9934,-4.0125,-4.0126,-4.0127,-4.0203,-4.0204,-4.0206,-4.0149,-4.0146,-4.0143,-4.014,-4.022,-4.0225,-4.0231,0,0,0,0,0,0,0,0,0,0,0,0,0,-4.0012,-3.9935,-4.0125,-4.0108,-4.0108,-4.0203,-4.0204,-4.0206,-4.015,-4.0146,-4.0142,-4.0139,-4.0218,-4.0225,-4.0232,-4.0348,0,0,-4.0252,-4.0255,0,0,0,0,0,0,0,0,-4.0008,-4.0019,-4.011,-4.011,-4.0109,-4.0163,-4.0165,-4.0253,-4.0151,-4.0134,-4.0141,-4.0137,-4.0205,-4.0213,-4.0235,-4.0352,-4.0355,-4.0253,-4.0257,-4.026,-4.0261,0,0,0,0,0,0,0,-4.0002,-4.0016,-4.0156,-4.0111,-4.0111,-4.0098,-4.0105,-4.0181,-4.0189,-4.0135,-4.0131,-4.0141,-4.0204,-4.0229,-4.0237,-4.0356,-4.0252,-4.0258,-4.0262,-4.0265,-4.0575,-4.0579,0,0,0,0,0,0,-3.9998,-4.0011,-4.0154,-4.0158,-4.0048,-4.0104,-4.0113,-4.0149,-4.0188,-4.0191,-4.0144,-4.0138,-4.022,-4.0229,-4.024,-4.0379,-4.0259,-4.0266,-4.027,-4.0571,-4.0576,-4.0581,0,0,0,0,0,0,-3.9994,-4.0011,-4.015,-4.0084,-4.0101,-4.0112,-4.0153,-4.0153,-4.0177,-4.0195,-4.0197,-4.0168,-4.0217,-4.023,-4.0322,-4.0381,-4.0269,-4.0275,-4.0566,-4.0573,-4.0578,-4.066,0,0,0,0,0,0,-3.9988,-4.001,-4.0053,-4.0085,-4.0105,-4.0231,-4.0157,-4.0157,-4.0189,-4.0182,-4.0218,-4.0221,-4.0215,-4.0312,-4.0329,-4.0389,-4.028,-4.0561,-4.0569,-4.0576,-4.0652,-4.0668,-4.0682,0,0,0,0,0,-3.9981,-4.0072,-4.0055,-4.0073,-4.0159,-4.0234,-4.0245,-4.0237,-4.0194,-4.0238,-4.0251,-4.0219,-4.0373,-4.0322,-4.034,-4.0403,-4.0557,-4.0567,-4.0576,-4.0645,-4.0665,-4.0682,0,0,0,0,0,0,-4.0045,-4.0076,-4.0057,-4.0161,-4.0196,-4.0225,-4.028,-4.0258,-4.0305,-4.0296,-4.0284,-4.0293,-4.039,-4.0406,-4.0349,-4.0519,-4.0458,-4.0472,-4.0505,-4.0524,-4.0539,-4.0532,-4.0286,0,0,0,0,0,-4.0072,-4.013,-4.0154,-4.0243,-4.0262,-4.0268,-4.0301,-4.0292,-4.0327,-4.0341,-4.036,-4.0395,-4.0452,-4.0489,-4.0542,-4.0655,-4.0663,-4.0707,-4.0723,-4.0735,-4.0746,-4.0809,-4.0829,-4.0612,-4.0612,-4.0612,0,0,-4.0126,-4.015,-4.0187,-4.0257,-4.0282,-4.0344,-4.0281,-4.0348,-4.0394,-4.0351,-4.0439,-4.0455,-4.0494,-4.0598,-4.0644,-4.0614,-4.0809,-4.0747,-4.0757,-4.0761,-4.0821,-4.0842,-4.086,-4.0618,-4.0617,-4.0616,0,0,-4.0256,-4.028,-4.0358,-4.0386,-4.0426,-4.0431,-4.045,-4.0484,-4.0492,-4.0581,-4.0551,-4.0607,-4.0704,-4.0733,-4.0761,-4.0909,-4.0882,-4.0927,-4.1005,-4.1066,-4.1083,-4.1098,-4.1151,-4.117,-4.0938,-4.0938,-4.0939,0,-4.0318,-4.0409,-4.0401,-4.0471,-4.0503,-4.047,-4.055,-4.0577,-4.0633,-4.0656,-4.0622,-4.0746,-4.077,-4.088,-4.0917,-4.0941,-4.0963,-4.0921,-4.1082,-4.1097,-4.1111,-4.1161,-4.1181,-4.0943,-4.0943,-4.0942,-4.0942,0,-4.0485,-4.0549,-4.0607,-4.0663,-4.0702,-4.0777,-4.0781,-4.0822,-4.0811,-4.082,-4.0912,-4.0941,-4.1,-4.1026,-4.1015,-4.1137,-4.1117,-4.1083,-4.1021,-4.1137,-4.1184,-4.1203,-4.0951,-4.0949,-4.0947,-4.0946,0,0,-4.0653,-4.0706,-4.0727,-4.0753,-4.0798,-4.0848,-4.0923,-4.0981,-4.1017,-4.1058,-4.1121,-4.1206,-4.1176,-4.1208,-4.1201,-4.1256,-4.1372,-4.1215,-4.1216,-4.1243,-4.1509,-4.1533,-4.1555,-4.1356,-4.136,-4.1362,-4.1505,0,-4.0785,-4.0914,-4.0911,-4.1032,-4.1092,-4.1064,-4.113,-4.1165,-4.1176,-4.123,-4.1243,-4.1304,-4.1259,-4.1278,-4.1331,-4.1346,-4.1425,-4.1336,-4.1414,-4.1417,-4.1403,-4.158,-4.1605,-4.1738,-4.1523,-4.1527,-4.1529,0,-4.0955,-4.1003,-4.1131,-4.1169,-4.1194,-4.1253,-4.1308,-4.136,-4.14,-4.1405,-4.1444,-4.1429,-4.1507,-4.1445,-4.1553,-4.1493,-4.1525,-4.1538,-4.1543,-4.1549,-4.1478,-4.1589,-4.178,-4.18,-4.1558,-4.1555,-4.1553,0,-4.1065,-4.1162,-4.1251,-4.1274,-4.1321,-4.1364,-4.1386,-4.1423,-4.1459,-4.1508,-4.1532,-4.159,-4.1621,-4.1666,-4.1669,-4.1623,-4.1778,-4.1716,-4.1784,-4.1784,-4.1816,-4.1813,-4.2013,-4.184,-4.1839,-4.1839,-4.1838,0,-4.1212,-4.1291,-4.1301,-4.1356,-4.1445,-4.1442,-4.153,-4.1548,-4.1582,-4.1641,-4.1621,-4.1676,-4.1677,-4.1735,-4.1738,-4.1827,-4.1841,-4.1848,-4.1847,-4.1849,-4.1848,-4.1868,-4.1858,-4.1844,-4.1843,-4.1842,-4.1841,0,-4.1348,-4.1358,-4.1453,-4.1492,-4.1504,-4.1567,-4.16,-4.1653,-4.1665,-4.174,-4.1757,-4.1776,-4.1843,-4.1851,-4.1928,-4.1931,-4.2038,-4.2029,-4.2024,-4.2022,-4.209,-4.2083,-4.2309,-4.2339,-4.2147,-4.2148,-4.215,0,-4.144,-4.15,-4.1546,-4.1584,-4.1609,-4.167,-4.1708,-4.171,-4.175,-4.1804,-4.1851,-4.1916,-4.1968,-4.2077,-4.2097,-4.2158,-4.2149,-4.2224,-4.2157,-4.2158,-4.2149,-4.2145,-4.2152,-4.2236,-4.2238,-4.224,-4.2241,0,-4.1602,-4.1605,-4.166,-4.1719,-4.1766,-4.1812,-4.1855,-4.1888,-4.1895,-4.1942,-4.2011,-4.2052,-4.2133,-4.2198,-4.2259,-4.2282,-4.2264,-4.2263,-4.2282,-4.2283,-4.2277,-4.2281,-4.2058,-4.2257,-4.2255,-4.2254,-4.2253,-4.2252,-4.1718,-4.1771,-4.1813,-4.1876,-4.191,-4.1952,-4.2004,-4.2024,-4.2081,-4.2147,-4.2146,-4.2222,-4.2265,-4.2344,-4.2372,-4.2433,-4.2408,-4.2435,-4.2442,-4.2448,-4.2455,-4.227,-4.2444,-4.2443,-4.2443,-4.2443,-4.2442,0,-4.1879,-4.1905,-4.1964,-4.2026,-4.2077,-4.2057,-4.2106,-4.2149,-4.2217,-4.2258,-4.2311,-4.2392,-4.2457,-4.2484,-4.2548,-4.2591,-4.2585,-4.2608,-4.2604,-4.261,-4.2474,-4.2451,-4.2612,-4.2612,-4.2612,-4.2612,-4.2612,-4.2612,-4.1968,-4.2058,-4.2067,-4.2174,-4.22,-4.2275,-4.2304,-4.2344,-4.2377,-4.2468,-4.2522,-4.2541,-4.2578,-4.2645,-4.2704,-4.2711,-4.2735,-4.2762,-4.2765,-4.2636,-4.2619,-4.2603,-4.2581,-4.2767,-4.2768,-4.2895,-4.2897,-4.2898]},{"header":{"parameterUnit":"m.s-1","parameterCategory":1,"la1":30.2991,"la2":30.254,"lo1":-89.0895,"lo2":-89.0444,"dy":0.0017,"dx":0.0017,"nx":28,"ny":28,"refTime":"2026-03-03T03:00:00:Z","depth":0,"parameterNumber":3,"parameterNumberName":"V-component_of_WINDS"},"data":[0,0,0,0,0,0,0,0,0,0,0,0,0,0,0,0,0,0,0,0,0,0,0,0,0,0,0,0,0,0,0,0,0,0,0,0,0,0,0,0,0,0,0,0,0,0,0,0,0,0,0,0,0,0,0,0,0,0,1.0802,1.0803,0,1.087,1.087,1.0871,1.0936,1.0937,1.0938,1.0939,1.1004,1.1005,1.1006,0,0,0,0,0,0,0,0,0,0,0,0,0,1.0727,1.0728,1.0802,1.0803,1.0804,1.087,1.087,1.0871,1.0936,1.0937,1.0938,1.0939,1.1004,1.1005,1.1006,0,0,0,0,0,0,0,0,0,0,0,0,0,1.0773,1.0728,1.0802,1.0844,1.0848,1.0869,1.087,1.0872,1.0936,1.0937,1.0938,1.0939,1.1004,1.1005,1.1006,1.099,0,0,1.1011,1.1011,0,0,0,0,0,0,0,0,1.077,1.0776,1.0837,1.0841,1.0846,1.0896,1.0868,1.0911,1.0935,1.0902,1.0939,1.094,1.0967,1.0971,1.0981,1.0993,1.0996,1.1011,1.1012,1.1012,1.1013,0,0,0,0,0,0,0,1.0767,1.0773,1.0829,1.0838,1.0843,1.0859,1.0867,1.0877,1.0927,1.0905,1.091,1.0918,1.097,1.098,1.0983,1.0997,1.1011,1.1012,1.1013,1.1014,1.1002,1.1001,0,0,0,0,0,0,1.0758,1.077,1.0826,1.0831,1.0811,1.0859,1.0868,1.0878,1.0927,1.0935,1.0916,1.092,1.0977,1.0982,1.0986,1.0972,1.1012,1.1014,1.1015,1.1003,1.1001,1.1,0,0,0,0,0,0,1.0756,1.0762,1.0824,1.0802,1.0811,1.0859,1.087,1.0879,1.0889,1.0935,1.0944,1.0918,1.0978,1.0984,1.099,1.0975,1.1014,1.1016,1.1004,1.1002,1.1001,1.0943,0,0,0,0,0,0,1.0754,1.0761,1.0756,1.0801,1.0812,1.0826,1.0869,1.088,1.0892,1.0898,1.0939,1.0947,1.0979,1.0987,1.0991,1.0978,1.1017,1.1006,1.1003,1.1001,1.0946,1.0939,1.0933,0,0,0,0,0,1.0751,1.0735,1.0755,1.0762,1.0806,1.0826,1.0831,1.087,1.0891,1.0886,1.0916,1.0945,1.0976,1.0987,1.0992,1.0979,1.1007,1.1004,1.1002,1.0949,1.0941,1.0934,0,0,0,0,0,0,1.0685,1.0742,1.0765,1.0764,1.0789,1.0836,1.0831,1.086,1.0879,1.0884,1.093,1.0939,1.094,1.096,1.0971,1.0967,1.0996,1.0994,1.0954,1.0946,1.094,1.0935,1.1018,0,0,0,0,0,1.067,1.0682,1.0731,1.0726,1.0738,1.0782,1.0792,1.082,1.0848,1.0859,1.0889,1.0914,1.093,1.0939,1.0956,1.0949,1.096,1.0943,1.0937,1.0931,1.0929,1.0929,1.0923,1.0991,1.0991,1.0992,0,0,1.064,1.0673,1.0677,1.0713,1.0737,1.0748,1.0791,1.08,1.0809,1.086,1.0868,1.0891,1.0923,1.0923,1.0924,1.094,1.0913,1.0928,1.0923,1.0924,1.0926,1.092,1.0914,1.099,1.099,1.099,0,0,1.0592,1.0617,1.0617,1.064,1.0676,1.0706,1.0705,1.0749,1.0767,1.0776,1.0815,1.0826,1.0851,1.0873,1.0887,1.0849,1.0878,1.0853,1.082,1.0819,1.0814,1.081,1.0798,1.0793,1.0851,1.0851,1.0851,0,1.0549,1.0569,1.0612,1.062,1.0636,1.0684,1.0685,1.0704,1.0743,1.0752,1.0769,1.0804,1.0828,1.0835,1.0827,1.0836,1.0838,1.0849,1.0811,1.0807,1.0804,1.0793,1.0788,1.0848,1.0848,1.0848,1.0849,0,1.0516,1.0529,1.0524,1.0563,1.0577,1.0581,1.0625,1.0634,1.0661,1.069,1.0699,1.0731,1.0756,1.0759,1.0785,1.077,1.0779,1.0803,1.0833,1.0793,1.0784,1.078,1.0843,1.0844,1.0845,1.0846,0,0,1.0427,1.0491,1.0489,1.0508,1.0552,1.0563,1.0569,1.0595,1.0603,1.0628,1.0636,1.0657,1.0681,1.0697,1.0725,1.0725,1.0695,1.0749,1.0751,1.0739,1.0683,1.0666,1.066,1.0714,1.0714,1.0713,1.0681,0,1.0387,1.0403,1.0443,1.0446,1.046,1.0507,1.0513,1.0541,1.0567,1.0582,1.0611,1.0627,1.0656,1.0666,1.0668,1.0698,1.0685,1.0701,1.0722,1.0722,1.0714,1.0655,1.0637,1.0605,1.0678,1.0677,1.0677,0,1.0342,1.0367,1.0372,1.0418,1.0425,1.0429,1.0458,1.0472,1.0504,1.0524,1.0543,1.0576,1.0585,1.0612,1.0627,1.0637,1.0648,1.0664,1.0664,1.0668,1.0697,1.0659,1.0595,1.0591,1.0671,1.0671,1.0672,0,1.0278,1.0313,1.0321,1.0336,1.0389,1.0392,1.0414,1.0448,1.0462,1.0486,1.0496,1.052,1.0534,1.0552,1.0591,1.0606,1.0601,1.0631,1.0618,1.0617,1.0615,1.0615,1.0554,1.062,1.062,1.062,1.062,0,1.023,1.0232,1.0294,1.0299,1.0303,1.0349,1.0351,1.0378,1.0408,1.0419,1.0461,1.047,1.052,1.0535,1.0565,1.0573,1.0578,1.0595,1.0603,1.0592,1.059,1.06,1.0604,1.0619,1.0619,1.0619,1.062,0,1.016,1.0202,1.0214,1.0265,1.0277,1.0278,1.0321,1.0328,1.0358,1.0371,1.0377,1.0424,1.0444,1.0485,1.0515,1.0535,1.0537,1.055,1.0527,1.0532,1.0517,1.0519,1.0461,1.0457,1.0524,1.0524,1.0523,0,1.0127,1.013,1.0181,1.0193,1.0214,1.0231,1.0247,1.0292,1.0307,1.0345,1.0348,1.0371,1.0393,1.0423,1.0459,1.0483,1.0499,1.0477,1.0502,1.0492,1.05,1.05,1.0501,1.0471,1.047,1.0469,1.0469,0,1.0064,1.0086,1.0107,1.0136,1.0154,1.0178,1.0205,1.0212,1.0264,1.0277,1.03,1.0317,1.035,1.0373,1.0403,1.0425,1.0456,1.0461,1.0459,1.0448,1.0435,1.0444,1.0512,1.0462,1.0462,1.0463,1.0463,1.0464,1.0013,1.0019,1.0057,1.008,1.0105,1.013,1.014,1.0172,1.0192,1.0224,1.0249,1.027,1.0304,1.0347,1.0368,1.0384,1.0399,1.0396,1.0396,1.0395,1.0391,1.0432,1.0389,1.039,1.039,1.039,1.039,0,0.9955,0.9982,1.0003,1.004,1.0058,1.0087,1.0119,1.0132,1.015,1.018,1.0201,1.0228,1.0251,1.029,1.0317,1.0323,1.0338,1.0328,1.0329,1.0334,1.0376,1.0375,1.0316,1.0316,1.0316,1.0316,1.0316,1.0316,0.9926,0.9939,0.9964,0.999,1.0017,1.0039,1.0055,1.0078,1.0102,1.0131,1.0151,1.0177,1.0211,1.0241,1.0264,1.0275,1.0283,1.027,1.0285,1.0323,1.033,1.0337,1.0337,1.0271,1.0271,1.0242,1.0242,1.0241]}]]